Location: Kitt Peak
(31.9639°N, 111.5992°W)
Time: 04:27:52
(UTC-07:00)

ISS - Visible Passes

Search period start: 15 December 2019 00:00
Search period end: 25 December 2019 00:00
Orbit: 411 x 421 km, 51.6° (Epoch: 15 December)

Date Brightness Start Highest point End Pass type
(mag) Time Alt. Az. Time Alt. Az. Time Alt. Az.
18 Dec -0.6 06:49:28 10° S 06:51:56 19° SE 06:54:24 10° E visible
20 Dec -3.6 06:48:05 10° SW 06:51:22 75° SE 06:54:40 10° NE visible
21 Dec -2.1 05:59:51 10° SSW 06:02:53 34° SE 06:05:56 10° ENE visible
22 Dec -1.1 05:13:29 16° SSE 05:14:27 18° SE 05:16:45 10° E visible
22 Dec -2.9 06:48:01 10° WSW 06:50:58 30° NW 06:53:57 10° NNE visible
23 Dec -3.8 06:01:41 46° W 06:02:21 58° NW 06:05:37 10° NE visible
24 Dec -1.1 05:16:16 16° NE 05:16:16 16° NE 05:17:04 10° NE visible
24 Dec -1.7 06:49:22 10° WNW 06:50:48 12° NNW 06:52:14 10° N visible
